User: anonymous   Login
Location: Unspecified
(0.0000°N, 0.0000°E)
Time: 17:27:23
(UTC+00:00)
Language:

NNS O-27 - Orbit

View from above orbital plane
View from above orbital plane
View from above satellite
View from above satellite

Ground track
Ground track

The orbit data is extracted from the following two-line orbital elements,

1 18361U 87080A   21027.46416259  .00000020  00000-0  22135-4 0  9990
2 18361  90.3162  17.8890 0102625 282.1062  76.8602 13.44511246636579
Epoch (UTC): 27 January 2021 11:08:23
Eccentricity: 0.0102625
inclination: 90.3162°
perigee height: 1016 km
apogee height: 1169 km
right ascension of ascending node: 17.8890°
argument of perigee: 282.1062°
revolutions per day: 13.44511246
mean anomaly at epoch: 76.8602°
orbit number at epoch: 63657

The dashed part of the orbit path shows where the satellite is in the earth's shadow,  

DLR